Wind_Speed
22 23 27 30 30 28 29 31 30 27 25 24 22 22 23 22 19 17 17 18 18 18 20 19 18 17 16 16 19 19 20 21 21 21 22 23 23 25 24 24 25 23 21 17 17 19 20 21 21 23 22 22 22 21 19 19 19 20 19 19 19 18 17 16 14 14 13 12 12 11 10 10 11 11 12 12 12 12 12 12 11 10 10 11 11 12
23 27 30 30 29 27 27 29 30 28 27 28 26 24 23 22 18 16 17 19 19 18 19 21 20 20 19 18 20 20 20 22 22 22 23 23 24 24 25 24 25 25 23 21 20 20 23 24 22 24 24 23 23 21 19 18 18 19 20 19 19 19 17 16 15 15 14 12 11 11 11 11 12 13 13 12 12 13 13 12 11 11 11 11 12 12
26 31 31 28 27 27 27 28 30 30 29 29 29 27 24 21 19 18 18 19 20 20 18 20 21 21 21 21 21 21 21 22 22 23 22 23 24 24 24 24 24 24 24 24 23 21 24 26 25 25 25 24 24 22 20 19 19 20 20 19 19 19 18 16 16 16 14 12 12 12 13 13 14 14 13 13 13 13 12 11 10 11 11 11 12 12
28 30 29 27 26 27 29 29 30 31 31 30 29 28 26 22 20 19 19 21 22 21 18 18 21 21 21 22 22 22 22 22 22 23 23 23 24 24 24 23 23 25 25 26 26 24 24 27 28 28 26 25 24 24 23 22 20 20 20 19 18 19 18 17 16 16 15 14 13 14 15 16 16 16 15 14 14 13 12 11 10 11 12 11 11 11
28 24 23 26 28 28 30 31 30 31 31 32 32 30 27 24 22 19 18 21 23 23 20 18 19 21 22 22 24 24 23 23 22 23 24 24 24 24 24 22 23 25 26 27 29 27 25 26 29 30 28 26 25 26 25 23 21 20 21 20 19 19 19 18 17 17 17 16 16 16 17 18 18 17 16 15 14 13 13 12 11 12 12 11 10 10
30 24 21 25 29 30 30 32 33 31 30 32 33 32 30 26 23 19 18 19 20 22 21 18 15 17 22 24 23 24 25 25 25 25 26 25 25 25 24 24 25 24 25 27 28 29 29 27 28 30 29 27 28 28 27 24 22 21 22 22 21 20 19 19 18 18 18 18 17 17 18 19 19 18 16 14 13 14 14 13 13 12 12 12 11 11
30 26 24 25 28 31 32 33 33 32 31 31 30 31 31 30 26 20 20 22 22 21 21 20 17 15 19 23 24 24 26 27 27 26 27 27 27 27 25 25 26 24 25 26 24 26 31 31 28 29 29 27 28 28 28 27 25 23 23 23 22 21 20 19 19 19 19 19 18 18 18 19 19 18 17 16 15 15 14 14 14 14 12 12 11 11
26 27 28 27 27 30 34 35 33 33 34 31 28 27 29 32 31 25 24 26 25 22 22 24 23 20 20 21 24 25 27 29 29 28 28 28 28 28 26 26 26 25 25 26 23 23 29 32 30 28 28 26 25 27 27 27 26 24 23 23 23 22 20 20 20 20 20 20 19 19 19 19 19 18 18 18 18 18 17 16 15 15 13 11 11 10
23 26 29 28 27 30 33 34 32 32 35 31 26 25 27 29 30 29 28 27 26 23 24 26 24 19 19 20 21 24 28 30 32 32 31 30 29 29 28 26 26 25 25 27 25 20 21 28 30 26 25 25 24 25 27 26 25 23 23 23 24 24 22 21 21 21 21 20 20 20 20 20 19 18 19 19 20 20 19 17 15 15 14 12 11 10
22 24 27 28 29 30 30 31 31 32 33 31 25 24 26 27 29 31 28 27 27 22 21 25 24 16 15 21 24 23 27 30 32 34 33 32 31 30 29 28 26 26 26 28 27 21 19 24 29 29 26 24 23 24 25 24 24 23 23 24 25 24 23 22 23 23 21 21 21 21 21 20 19 19 19 20 20 20 19 17 16 16 14 13 12 11
24 22 24 28 30 29 27 27 30 31 30 29 27 27 27 27 29 30 30 31 26 18 20 26 26 21 14 19 27 26 27 28 29 33 33 32 33 32 30 29 28 28 28 28 26 25 24 23 25 30 31 26 22 22 24 24 25 25 24 24 25 24 24 23 24 24 22 22 22 22 21 20 20 20 20 20 19 18 17 16 17 16 15 14 13 12
28 26 25 27 29 28 26 26 28 29 30 30 28 27 26 25 26 25 27 29 18 13 22 29 29 27 19 19 25 26 27 28 28 31 32 32 33 33 30 28 29 30 29 29 28 28 30 26 22 26 30 29 23 20 23 24 25 26 25 25 25 25 25 25 26 25 23 23 23 22 21 21 21 21 21 20 19 17 16 16 17 16 15 15 14 13
30 32 28 23 26 29 27 27 29 29 30 31 29 27 23 18 17 16 16 18 15 17 26 29 28 27 25 26 26 25 26 28 29 28 29 31 32 32 30 29 33 34 30 31 32 30 30 29 24 22 25 29 25 19 21 24 25 26 26 26 26 26 26 27 27 26 24 24 23 22 22 22 22 21 21 20 19 18 17 17 18 16 15 15 15 15
26 30 32 27 24 29 30 29 30 30 30 32 32 30 23 13 9 10 10 12 14 20 26 28 26 24 27 29 29 28 27 25 27 28 27 29 30 32 33 32 33 31 28 29 30 27 26 25 22 19 20 23 22 19 20 23 23 24 26 26 27 27 28 28 27 26 25 24 23 23 22 22 23 22 21 20 19 19 18 18 18 17 17 17 17 16
22 22 32 33 25 26 31 32 29 27 29 33 34 32 29 23 14 10 11 11 13 17 22 25 24 21 24 24 24 28 28 25 25 27 27 27 30 31 31 31 30 27 25 25 23 22 22 21 17 16 17 19 21 20 20 23 23 23 23 24 25 27 28 28 27 26 25 24 23 23 23 23 23 22 21 21 20 19 19 18 19 19 19 19 18 19
25 22 26 32 29 26 30 33 30 26 27 31 34 35 35 32 26 19 16 17 20 18 18 22 24 25 25 22 18 20 24 27 26 25 26 28 29 30 30 30 28 26 24 23 21 20 21 20 17 16 16 17 20 21 21 23 22 21 20 21 22 25 27 26 25 24 24 23 22 23 23 23 23 23 22 21 20 20 19 19 20 20 19 19 20 21
23 23 22 27 31 31 29 29 31 31 28 26 31 37 35 31 31 27 19 21 22 15 15 22 24 24 24 23 23 21 20 26 28 27 27 27 28 30 33 32 28 25 23 21 20 19 20 22 19 17 17 17 19 21 21 22 20 18 18 17 18 22 25 25 24 23 23 23 23 23 23 24 24 23 23 21 20 21 21 20 20 20 20 21 21 22
20 20 21 26 30 32 30 27 29 34 32 28 29 33 32 30 32 31 19 15 16 11 13 23 23 22 22 20 23 27 23 23 27 28 27 26 28 30 33 34 30 25 20 15 16 17 19 24 22 19 19 18 18 20 20 20 18 17 16 16 16 19 21 22 21 22 22 23 23 23 24 24 24 24 23 22 21 22 23 22 21 21 21 22 22 23
21 19 19 24 27 29 30 28 28 33 38 37 30 27 30 29 29 31 21 12 12 10 10 19 23 25 28 22 20 27 27 23 25 29 28 26 28 29 32 35 31 26 19 13 14 17 21 25 25 21 20 19 18 18 20 20 19 17 17 16 17 18 19 19 19 21 22 23 23 24 24 24 24 24 23 23 23 23 24 23 22 22 22 23 24 24
22 20 18 20 24 26 30 33 33 33 35 39 36 30 31 29 26 30 26 17 14 10 9 15 18 21 28 27 23 25 28 27 25 27 29 27 28 28 31 35 32 27 23 18 19 21 25 28 28 25 22 21 19 18 20 21 20 19 18 18 18 19 20 21 21 22 22 23 24 24 24 25 25 24 23 24 24 24 24 24 24 23 23 24 25 25
26 22 19 18 21 26 32 36 36 32 29 34 38 36 32 30 28 29 29 29 24 12 7 10 12 18 26 26 26 24 26 30 27 27 29 29 28 29 31 33 34 32 26 23 23 24 26 27 28 28 26 25 24 21 21 22 22 21 20 20 20 20 23 23 23 23 23 23 23 24 24 24 25 24 24 24 25 25 25 25 25 25 25 26 26 27
29 24 21 21 23 28 33 33 32 30 27 29 34 38 35 30 28 22 20 29 31 21 15 11 9 18 25 24 26 24 21 27 27 27 31 30 30 32 31 32 37 37 30 26 20 18 21 25 29 31 31 29 27 24 22 22 23 22 22 22 21 22 24 25 24 24 23 23 23 24 24 24 24 24 24 25 26 26 26 27 26 25 26 27 27 28
31 25 23 24 26 26 26 27 29 29 29 28 29 34 37 35 32 24 15 21 28 26 29 24 15 18 22 20 22 22 18 23 26 27 30 30 28 30 29 29 32 32 29 25 22 18 16 21 27 30 32 30 28 25 23 24 23 22 22 23 23 24 24 25 25 24 24 24 24 24 24 24 24 25 25 26 26 26 27 27 27 26 27 29 29 29
32 29 25 23 24 26 24 26 29 28 29 31 31 32 37 39 40 32 22 23 27 28 29 22 14 21 26 19 18 20 18 20 23 24 26 27 28 30 30 30 32 33 28 24 25 21 15 14 19 26 29 28 28 28 26 25 25 24 24 24 24 24 24 25 25 24 24 24 24 24 25 24 24 25 26 26 26 26 27 27 26 27 28 29 30 30
32 31 28 21 16 19 22 23 28 31 31 32 32 32 33 37 41 39 32 26 25 28 29 19 12 24 32 25 18 17 17 20 22 21 23 26 27 29 32 32 31 30 25 21 21 21 16 12 11 18 25 27 29 31 30 29 29 27 26 25 24 24 24 25 25 25 24 23 24 25 25 24 25 25 26 26 26 26 26 26 26 26 28 29 31 31
31 31 31 25 15 13 15 17 22 29 32 31 30 31 31 33 36 39 38 31 22 22 28 25 19 21 27 28 25 19 16 19 20 21 24 26 24 24 26 24 23 24 23 21 21 20 17 13 9 11 18 24 29 32 33 32 32 30 28 26 25 25 25 25 26 25 23 23 24 24 24 24 24 24 25 25 25 25 25 25 25 25 26 27 29 30
29 30 33 34 28 21 20 21 22 24 28 30 30 31 32 33 34 36 37 36 29 23 24 27 25 21 22 28 31 28 24 20 17 18 22 24 26 27 23 17 18 22 23 21 21 21 20 16 12 11 13 17 23 29 33 34 33 32 31 29 28 27 26 26 26 25 23 23 23 24 23 23 23 23 23 23 23 23 23 23 24 25 25 25 26 29
29 29 32 36 37 31 25 24 24 23 26 28 29 30 31 31 33 35 36 37 34 26 23 26 26 24 25 28 27 28 32 30 23 20 21 21 21 26 26 22 19 21 19 17 17 20 20 18 15 14 12 13 17 22 28 32 33 32 33 32 31 30 28 27 27 25 23 22 23 23 23 22 22 23 22 21 21 21 22 22 23 25 27 27 26 27
25 26 27 30 35 36 32 28 26 25 25 27 27 28 30 31 32 34 34 36 36 32 29 29 27 23 26 32 30 23 25 29 27 24 26 26 23 23 26 25 24 25 26 25 22 21 21 20 17 12 10 11 14 18 22 26 31 33 34 33 33 31 29 28 27 26 24 23 23 23 23 23 23 23 22 22 22 21 22 23 24 27 29 29 28 27
22 24 24 24 27 33 35 34 31 28 26 27 29 29 28 29 31 32 33 34 37 37 34 31 30 27 27 32 35 30 25 24 23 21 24 28 29 29 28 27 26 28 30 31 29 25 23 23 20 15 11 9 11 16 19 21 24 29 33 34 34 32 30 27 27 28 26 23 23 24 24 24 23 23 23 22 21 21 22 24 25 27 29 29 29 29
23 22 21 22 23 25 31 35 35 32 28 27 29 30 30 30 30 32 33 34 35 36 33 32 35 36 32 30 34 37 35 32 29 25 24 27 30 31 31 31 30 30 30 31 32 29 25 23 24 22 18 12 9 12 17 19 21 25 31 35 34 33 30 27 26 28 27 24 24 24 25 24 23 23 23 22 21 21 22 24 26 28 29 30 31 31
27 24 21 22 23 24 25 28 32 33 31 30 31 32 33 34 32 31 30 30 32 32 30 31 34 35 33 30 28 29 33 38 40 35 30 28 29 30 31 31 31 32 32 31 31 31 29 26 25 25 23 19 13 10 13 18 21 23 28 33 35 33 31 28 26 28 27 24 24 24 25 25 24 24 23 22 22 23 23 25 27 29 30 31 32 32
30 28 25 23 23 26 25 23 26 27 25 29 36 36 34 33 32 30 28 28 32 33 30 30 30 30 29 29 29 28 28 33 38 39 37 32 30 29 29 30 32 32 30 27 27 29 30 29 27 26 24 22 17 12 11 15 21 23 25 31 35 34 32 29 27 27 27 26 25 25 25 26 25 25 24 24 24 25 26 27 29 30 30 31 32 32
30 29 29 27 25 25 24 25 25 21 19 25 31 31 32 33 32 32 31 31 31 32 32 32 32 32 29 27 29 31 30 29 29 32 36 38 37 34 29 27 30 32 30 26 23 22 24 27 29 28 26 22 18 16 15 15 19 23 25 30 36 36 33 31 29 28 28 28 27 27 27 27 26 26 25 26 27 27 27 28 29 30 30 30 31 30
32 32 29 29 28 24 24 26 21 18 22 27 24 21 26 32 33 33 33 32 31 30 28 25 23 27 31 31 31 32 33 32 28 25 29 36 39 40 37 31 29 30 31 29 26 24 25 27 29 29 28 25 21 19 18 17 19 22 26 29 35 38 35 32 31 30 29 30 30 29 28 27 27 27 27 28 28 27 27 28 28 29 29 29 29 28
30 32 30 30 29 24 24 24 17 17 24 26 22 20 22 25 30 33 34 34 33 32 29 23 16 15 20 27 34 37 37 37 36 31 30 34 38 40 40 38 34 31 31 30 29 29 30 32 34 34 32 30 27 24 21 19 19 24 28 30 33 38 37 35 34 33 32 32 31 30 29 28 28 28 29 29 27 26 27 28 28 28 28 28 29 28
23 25 29 31 29 25 23 24 21 20 21 22 22 22 20 20 22 26 28 29 28 27 24 21 19 18 15 13 19 24 25 29 36 37 34 34 39 41 41 41 39 36 35 36 37 36 36 38 40 42 42 41 36 30 25 21 20 25 29 31 34 38 39 37 36 35 33 32 31 29 29 30 30 31 31 29 27 27 28 28 28 28 28 29 28 25
22 21 22 24 27 27 24 22 19 15 16 21 24 21 17 15 14 16 17 15 14 16 18 17 20 22 21 15 14 16 15 14 23 33 36 35 35 37 40 43 43 41 40 41 41 41 43 44 43 44 48 49 44 38 33 27 23 26 30 31 35 39 41 39 38 36 34 32 31 31 32 33 33 33 31 29 28 28 28 27 27 28 28 27 24 21
22 21 20 20 22 29 27 21 17 15 16 20 21 19 17 14 12 13 13 11 12 17 22 24 23 25 28 25 20 20 19 16 16 23 28 29 29 31 33 36 39 39 39 39 38 38 41 46 48 47 47 47 45 42 39 32 25 27 30 33 37 41 42 41 39 38 36 34 35 35 35 35 34 32 31 30 28 27 26 26 27 28 25 23 21 21
22 22 22 20 20 24 25 21 19 19 18 15 15 17 16 13 14 13 10 11 15 17 20 25 25 27 33 33 26 23 23 23 24 22 18 19 25 30 31 31 31 32 34 35 36 36 35 37 43 46 46 44 42 41 39 34 28 28 31 34 39 42 43 42 42 40 39 38 38 38 37 35 33 32 30 28 25 25 26 27 27 26 23 21 22 24
26 24 25 24 22 20 20 20 19 19 18 14 13 16 12 9 13 15 11 10 12 14 17 20 19 21 29 32 30 29 28 29 31 30 23 19 21 26 31 33 33 31 31 31 34 38 40 38 38 41 42 42 40 40 39 36 31 30 30 35 41 44 44 44 43 42 40 39 39 38 35 34 33 31 28 25 23 25 27 26 25 23 21 22 25 26
29 26 24 26 26 23 23 23 20 18 19 15 13 17 15 11 12 15 14 14 14 15 17 19 17 18 23 26 27 31 34 35 34 34 32 27 24 25 29 32 37 37 32 32 35 39 42 44 44 43 43 43 42 41 40 37 34 30 30 35 42 45 46 45 44 42 41 40 38 36 35 34 33 30 27 25 27 29 28 26 25 23 22 24 25 26
28 29 27 27 26 24 25 24 18 16 19 18 16 18 17 15 15 15 16 17 20 21 21 20 19 19 21 23 25 27 32 36 36 35 34 34 35 36 33 29 33 35 30 31 37 41 42 44 43 43 43 43 41 39 39 37 33 30 31 37 44 47 48 47 45 43 41 39 38 37 36 34 30 26 25 26 29 30 28 25 24 23 23 25 26 26
15 21 23 26 26 24 24 23 19 18 20 19 18 20 18 17 20 21 20 18 20 24 24 20 19 21 21 23 25 25 28 32 34 37 37 36 38 41 38 32 32 34 33 31 33 37 41 41 39 39 40 40 40 39 39 37 33 31 34 40 45 48 49 48 45 42 40 39 38 37 35 32 27 24 25 25 26 26 24 23 24 24 25 26 27 27
8 9 10 16 21 20 20 19 15 17 18 17 19 22 21 23 25 23 21 21 21 24 25 20 19 22 24 25 26 27 28 29 31 34 35 35 37 40 41 39 35 35 40 41 36 36 38 37 35 35 37 38 39 39 38 36 34 33 36 41 46 49 49 46 43 41 40 39 38 36 33 29 26 24 24 25 25 25 24 24 25 26 27 28 28 28
13 8 5 8 14 14 13 12 10 10 13 15 17 16 17 22 25 21 20 21 21 22 24 23 23 26 29 31 31 32 32 33 34 33 31 33 39 43 45 44 37 33 39 44 43 43 42 38 34 33 33 35 37 36 36 36 35 35 39 44 47 47 45 42 41 40 40 39 37 34 30 27 25 24 23 23 23 23 23 25 27 27 28 29 29 31
14 11 7 8 13 15 14 13 13 14 14 14 15 14 12 16 20 19 19 20 19 20 25 27 27 30 33 34 34 33 33 33 33 33 31 32 37 42 46 47 43 39 37 35 35 36 37 37 37 35 32 33 34 33 34 35 37 40 43 45 45 42 40 39 40 39 38 35 32 29 26 24 23 23 23 24 26 28 30 31 30 29 29 29 31 31
12 14 11 9 14 17 14 15 17 17 16 17 18 17 15 15 17 18 20 21 21 23 26 27 29 32 33 32 30 28 26 25 25 28 30 30 31 35 39 41 42 43 42 36 30 29 29 29 30 29 28 29 30 31 32 33 35 38 40 41 40 40 40 40 39 36 33 31 28 25 24 23 24 25 28 31 34 36 37 35 32 30 30 31 31 30
9 14 12 9 11 13 14 18 21 19 16 18 18 17 15 15 16 17 19 21 21 21 21 21 25 28 30 31 29 25 20 19 20 21 22 22 24 27 31 35 37 39 38 30 22 23 23 23 25 27 28 30 30 30 30 31 33 36 38 40 41 41 40 38 35 32 30 27 25 23 23 24 27 29 30 30 29 30 32 31 30 30 30 30 30 28
8 12 13 11 10 11 13 17 20 19 15 14 14 15 14 12 12 12 13 15 16 17 17 16 19 23 27 30 31 28 24 19 15 14 13 14 19 24 28 30 31 31 28 24 22 22 21 20 20 21 23 25 27 28 32 35 38 39 39 39 38 37 34 33 31 29 27 25 24 23 23 25 27 28 27 25 25 27 28 28 28 29 29 28 27 26
7 8 10 11 11 11 12 15 16 16 15 14 14 14 12 8 8 9 9 10 12 13 15 15 17 20 23 24 25 27 25 19 12 10 9 10 9 12 16 18 20 22 20 18 19 18 16 16 17 19 23 28 30 33 36 37 37 37 36 35 34 32 30 29 28 26 24 23 23 23 23 24 25 24 24 24 25 26 26 26 27 27 27 26 24 22
Wind_Direction
205 210 214 217 218 217 219 219 222 227 229 234 235 231 228 227 226 218 219 216 208 215 216 213 216 211 208 200 193 196 197 195 195 196 196 197 198 200 203 201 202 216 225 220 216 212 214 220 217 215 219 220 223 225 225 226 224 226 228 227 228 231 232 234 236 238 241 243 241 238 233 232 231 229 231 236 240 243 244 249 256 258 263 273 275 277
209 217 220 219 221 220 221 222 224 228 229 234 240 241 237 233 233 225 224 223 209 215 220 213 216 216 209 201 196 200 201 198 199 198 199 200 200 202 206 206 205 211 217 220 223 217 215 223 224 222 222 222 226 229 228 229 227 229 231 231 232 234 236 239 240 241 243 243 240 234 228 228 229 226 228 232 236 241 243 245 255 261 263 268 273 276
212 222 224 220 222 221 222 223 223 227 228 233 239 244 245 236 231 229 231 230 209 209 223 215 216 219 212 209 204 201 205 207 205 203 203 201 202 206 207 207 208 209 210 213 224 226 221 224 229 230 228 226 229 232 232 231 228 230 234 235 235 237 240 241 242 242 240 239 234 228 226 226 227 227 226 227 230 236 240 242 249 258 263 266 269 274
216 223 224 220 220 219 221 223 222 226 228 232 235 239 245 240 231 223 226 234 217 207 220 217 218 223 217 216 213 207 209 212 211 208 207 204 203 206 207 209 211 212 212 211 219 229 227 226 231 235 234 231 232 234 234 232 231 232 236 239 238 239 242 242 243 242 236 233 229 226 225 226 227 228 226 227 230 235 241 245 248 251 258 260 261 270
225 226 224 220 220 219 220 222 222 224 226 229 232 233 239 242 240 228 221 235 225 211 218 220 221 226 222 220 217 212 212 215 215 213 210 208 205 204 206 214 217 213 215 215 216 225 231 229 232 238 239 235 235 237 238 238 236 235 237 240 240 239 242 243 242 240 235 231 230 229 228 227 228 227 228 229 233 238 242 247 250 249 251 255 256 260
231 230 223 219 219 219 219 221 221 222 225 228 229 232 235 239 242 234 225 232 220 205 211 216 222 228 222 223 223 213 210 213 216 214 211 209 207 207 205 210 218 216 218 223 219 219 230 235 234 239 241 238 237 239 242 243 241 238 236 238 240 239 240 241 239 237 236 233 232 233 233 233 232 231 231 232 236 241 242 245 246 246 247 249 250 247
232 228 224 221 218 218 219 221 220 220 226 229 227 229 234 239 243 236 228 228 216 204 207 213 221 231 223 222 225 219 211 213 216 215 215 211 207 209 208 207 216 218 216 225 226 218 224 234 238 239 242 241 239 240 243 244 243 240 236 237 239 240 239 239 238 235 236 236 234 235 236 236 234 232 233 233 237 240 239 240 241 243 245 245 243 236
228 226 225 222 219 218 219 220 220 218 225 231 227 226 230 236 243 240 232 230 224 214 212 217 225 235 233 224 224 222 215 214 216 213 213 215 211 210 212 210 214 217 215 222 232 224 221 232 241 244 245 245 242 242 242 243 243 241 238 237 239 241 240 238 238 236 236 238 237 236 238 238 235 232 231 232 236 237 235 235 237 240 243 240 231 222
224 225 225 221 219 220 220 220 219 218 223 229 228 228 228 230 238 244 243 238 228 215 208 213 221 233 241 232 226 224 217 217 221 218 214 216 215 213 213 212 213 217 218 222 230 230 225 234 244 249 250 249 246 243 243 244 244 241 238 236 237 239 239 236 236 237 237 238 239 238 238 238 236 232 229 230 234 236 235 233 233 237 237 231 221 219
226 226 225 224 222 222 224 222 220 220 223 226 227 233 234 230 231 235 243 248 242 229 219 219 217 223 244 236 228 226 220 221 225 224 219 217 218 216 213 213 216 219 221 224 229 236 238 239 242 248 253 253 249 244 243 244 242 239 235 233 235 237 237 235 235 237 236 236 238 237 237 237 235 232 229 229 232 236 237 233 232 234 233 226 221 223
234 231 223 225 226 225 226 224 221 221 222 224 226 231 237 239 236 231 231 239 247 246 241 238 224 214 229 235 230 228 225 223 223 222 220 216 216 217 217 217 217 219 223 226 229 234 241 242 236 241 250 255 253 245 241 241 239 237 232 230 232 233 234 234 234 236 235 235 237 236 236 235 234 232 231 230 232 235 236 233 232 233 231 226 227 230
236 236 226 223 226 227 227 225 223 221 220 222 223 226 232 239 244 243 233 229 235 247 244 244 236 222 222 230 228 229 228 225 224 222 218 215 214 215 219 220 215 215 219 225 228 227 234 240 229 227 241 250 252 246 239 238 236 234 231 228 228 229 230 232 233 235 234 233 234 234 233 232 231 231 231 232 233 234 234 232 232 232 229 227 229 232
229 233 231 225 223 224 223 220 221 221 218 218 218 219 223 228 234 242 241 230 223 230 234 238 240 235 233 235 231 230 228 225 224 222 217 217 215 212 213 213 216 221 222 224 227 223 226 234 227 217 231 242 245 243 236 236 236 234 233 228 226 227 227 230 233 233 233 232 232 232 230 229 229 229 230 231 233 233 232 231 232 232 230 228 229 233
224 227 229 227 221 219 219 216 215 215 212 213 214 215 217 220 221 223 235 241 229 227 231 234 240 243 241 238 232 229 229 227 224 220 217 216 211 208 211 216 223 230 230 227 229 229 229 233 227 218 225 233 238 239 234 235 237 236 235 232 228 226 226 230 232 231 232 232 231 230 227 226 228 228 228 229 230 230 230 230 233 233 232 231 231 234
221 220 220 222 219 214 216 216 214 211 211 213 214 217 220 220 223 224 224 233 238 238 238 235 235 240 243 239 230 227 228 226 223 219 217 213 210 213 219 225 231 230 228 229 235 241 239 234 226 222 227 227 230 235 233 235 239 238 238 237 232 229 228 230 231 230 230 230 229 227 225 225 226 226 227 227 227 228 229 231 233 234 235 235 233 235
224 228 220 218 219 216 215 216 214 216 219 217 214 219 223 220 222 233 235 232 235 241 242 237 232 230 238 241 230 227 226 222 219 219 217 212 214 219 218 221 228 226 226 233 240 244 240 233 227 224 227 225 225 230 232 234 239 239 238 239 235 231 231 232 231 229 229 228 227 226 224 223 224 224 225 226 226 227 230 232 233 235 238 238 236 236
222 231 222 215 218 218 217 214 211 215 222 217 212 218 222 219 221 231 240 236 236 240 238 239 238 230 232 236 228 225 227 224 219 217 218 213 211 214 214 221 229 226 225 232 235 240 238 233 232 231 229 224 221 222 226 232 236 238 238 238 236 231 230 231 230 228 227 226 226 224 223 223 223 224 225 226 227 229 232 235 234 237 239 240 240 238
226 234 223 213 216 216 213 214 213 216 223 223 215 216 220 220 222 229 236 231 233 245 237 234 239 237 235 231 218 214 217 222 218 213 213 211 209 211 216 222 227 224 224 231 234 241 242 233 228 231 231 225 219 218 221 229 233 234 234 233 232 230 228 228 226 225 225 225 225 224 223 223 223 224 226 227 229 231 234 238 238 239 241 242 244 243
230 240 230 214 216 213 205 210 217 216 221 228 226 216 214 215 218 224 230 225 225 240 238 232 235 237 239 235 216 208 207 209 210 208 208 207 207 212 216 217 221 220 219 230 244 246 241 231 223 225 230 224 219 218 219 225 230 229 229 226 224 223 223 224 222 222 223 223 225 226 224 224 225 226 227 229 232 234 237 241 243 244 245 246 247 248
224 234 238 218 211 207 200 204 214 215 214 223 233 229 219 217 219 222 225 224 226 236 237 235 236 234 236 238 231 217 206 201 202 204 206 206 208 213 217 219 218 210 209 228 251 245 231 226 221 221 225 221 219 220 217 220 225 225 224 223 220 217 216 218 218 218 222 223 224 225 225 226 227 228 229 232 235 238 241 244 247 248 249 250 251 252
224 228 235 224 206 202 203 204 209 213 209 213 226 232 225 216 217 223 226 222 222 234 238 233 237 235 233 235 239 234 212 200 200 203 206 209 213 215 221 221 206 196 210 238 251 241 226 222 221 222 227 226 223 223 218 218 223 223 222 221 218 216 217 219 219 219 221 222 223 225 227 228 230 232 233 235 238 242 244 247 249 252 254 254 255 256
221 223 228 226 214 207 210 210 209 211 212 212 218 226 227 219 213 218 225 219 218 226 234 236 245 239 234 232 237 240 217 201 204 210 212 216 220 220 224 222 205 202 226 242 233 221 219 223 226 226 230 228 222 221 220 219 222 223 224 224 220 217 220 222 224 224 223 223 223 225 228 231 232 235 236 237 240 244 247 249 252 255 257 259 260 260
216 221 224 226 225 221 216 212 211 210 213 219 220 220 225 226 222 221 221 217 218 224 229 234 245 240 235 231 234 236 221 209 214 216 215 217 219 217 219 223 218 222 237 231 208 200 211 223 227 227 229 227 220 220 222 222 225 227 226 227 225 221 222 223 226 226 225 224 225 226 229 231 233 236 239 241 243 246 249 251 254 257 260 263 265 266
211 219 224 223 227 236 230 213 212 213 213 220 224 219 219 224 226 228 226 219 222 227 226 226 232 232 232 235 236 237 231 218 212 212 212 215 216 214 216 224 231 233 231 219 208 207 208 216 222 223 225 224 221 224 227 227 229 230 228 228 229 227 224 224 226 226 225 225 226 227 229 231 233 236 239 242 245 247 250 253 255 257 260 264 268 271
205 214 220 219 218 232 234 215 207 212 213 217 223 222 220 222 225 229 232 228 225 228 226 225 229 225 227 233 233 228 226 217 210 212 218 222 223 219 219 223 225 221 214 211 214 215 213 220 225 221 222 222 221 224 228 228 228 229 230 230 231 229 225 224 226 227 226 225 226 228 230 232 234 236 239 242 246 248 251 255 258 259 259 262 267 272
205 208 213 219 217 213 222 214 203 207 211 215 220 224 225 224 223 226 232 235 234 229 227 232 240 226 218 224 227 220 217 212 210 221 227 224 220 213 212 217 219 218 217 218 222 223 223 233 249 236 226 225 225 226 228 230 227 227 229 230 230 229 226 225 227 229 227 225 226 229 230 231 234 236 238 241 244 248 251 256 259 261 260 261 264 269
209 212 211 218 225 222 219 219 213 207 209 213 216 220 226 226 224 224 228 233 235 235 235 238 246 241 222 220 221 218 220 219 213 224 228 219 212 207 210 222 223 222 221 218 222 227 225 233 259 265 242 232 232 231 232 235 232 228 228 229 229 228 225 225 229 232 229 226 229 232 232 232 234 237 239 240 242 246 249 253 257 261 262 262 262 267
213 219 215 216 225 230 227 222 221 216 214 217 217 217 223 227 227 225 225 231 234 236 239 237 241 245 238 234 229 217 220 229 230 224 221 217 210 204 211 225 222 215 219 222 225 224 220 232 259 267 255 244 238 235 235 238 237 231 229 229 229 229 225 223 227 232 232 229 230 233 233 234 235 238 241 242 242 244 246 249 254 258 262 264 264 268
219 225 222 219 221 226 230 229 228 225 219 221 221 219 220 224 228 230 227 228 231 235 238 235 234 237 236 240 245 233 221 228 232 225 219 221 221 211 216 228 227 228 240 246 240 230 226 237 251 253 251 249 242 237 236 240 240 235 230 230 230 230 227 223 225 231 233 230 230 233 234 234 235 238 242 243 242 244 247 249 252 255 261 266 268 270
223 226 224 226 224 223 226 230 233 235 229 227 227 224 222 220 223 231 234 232 231 235 238 238 238 239 233 234 243 247 240 233 230 226 220 220 222 221 224 234 236 239 244 243 239 235 235 241 243 240 247 253 244 238 235 240 246 242 234 231 230 230 228 225 225 229 232 230 228 231 233 234 236 238 240 244 245 246 248 251 253 255 259 266 271 273
224 227 219 226 234 229 224 225 230 236 238 238 236 231 232 232 225 223 229 234 236 238 236 234 238 242 239 235 238 243 245 242 238 237 231 225 224 224 228 236 242 244 241 236 235 233 232 240 241 239 247 252 246 242 239 241 248 246 239 235 231 230 228 227 226 228 230 230 227 228 232 233 235 237 238 242 244 246 248 250 253 256 260 266 271 274
222 227 220 221 234 237 229 222 223 229 235 241 241 233 231 236 234 226 224 229 236 242 242 235 234 237 238 236 236 238 241 241 242 245 242 235 231 230 233 236 238 238 235 237 243 239 235 242 242 241 248 248 241 245 247 246 246 245 242 238 234 230 228 229 230 228 227 229 228 227 230 231 233 235 236 239 243 245 247 248 251 257 262 266 270 274
218 222 221 220 229 233 230 226 225 227 230 233 235 233 230 233 236 234 235 235 231 233 239 242 241 240 240 238 235 235 236 237 240 245 245 239 234 234 236 234 232 231 232 240 248 243 240 243 242 243 249 245 239 246 255 255 250 244 242 240 234 230 228 229 233 230 225 227 227 225 227 229 231 232 234 236 241 244 247 249 253 259 264 267 270 274
214 218 219 220 228 231 229 231 233 233 234 232 230 231 234 237 238 236 236 239 236 229 231 238 243 243 242 240 238 238 239 239 239 242 242 239 236 236 236 231 227 228 232 237 242 238 237 242 245 248 248 241 241 250 253 256 254 245 239 236 232 229 228 229 233 232 225 224 225 224 226 228 229 231 234 236 240 244 248 252 256 261 265 267 269 273
208 213 217 218 224 229 224 225 229 232 235 237 236 234 233 236 242 244 239 237 239 236 234 239 243 241 239 239 241 243 245 244 243 243 241 238 236 237 238 237 231 226 224 228 235 239 239 241 247 250 245 239 244 254 253 254 259 250 239 233 229 227 227 228 232 232 226 223 224 225 226 229 230 232 236 238 242 247 251 256 259 262 263 265 267 271
207 211 215 215 218 223 221 219 225 236 237 238 240 238 233 231 235 242 244 243 240 239 244 254 264 263 250 240 238 240 242 243 244 246 247 242 238 238 240 242 239 232 226 225 230 240 244 244 248 252 250 246 248 254 254 254 262 257 244 233 227 225 225 228 230 231 228 224 225 226 228 230 231 233 238 242 246 250 253 256 258 259 262 265 267 270
219 219 216 216 215 216 222 223 228 241 242 237 232 228 228 230 228 229 236 241 237 235 246 255 256 264 270 245 228 231 235 237 237 239 244 243 240 241 243 244 245 244 242 238 236 241 248 250 249 250 252 253 253 253 254 256 262 262 248 234 226 223 224 228 230 230 229 226 226 228 229 231 232 235 240 244 247 249 251 253 257 260 264 266 267 269
230 228 224 229 221 211 219 229 230 234 234 228 227 223 221 228 228 224 230 237 232 234 247 248 240 251 264 258 232 225 229 237 237 237 241 240 237 239 244 248 251 250 249 248 246 246 248 249 248 247 250 253 253 251 254 258 261 260 248 233 225 223 223 227 229 230 229 227 227 229 229 231 234 236 239 242 243 246 250 254 259 262 262 263 267 274
231 227 232 247 228 207 211 224 226 228 229 226 222 218 216 219 218 221 236 249 248 248 253 253 248 253 262 262 250 238 243 261 255 241 242 240 234 237 244 249 252 250 247 246 246 247 247 246 245 245 246 249 250 248 251 254 257 256 246 230 224 223 224 227 229 229 228 226 226 228 229 232 234 234 235 238 240 245 252 256 259 260 259 262 270 280
231 226 225 235 229 212 214 225 230 231 227 215 200 196 203 213 216 219 229 234 232 235 245 252 253 254 257 258 256 249 252 264 259 246 249 249 240 242 250 253 249 244 242 241 238 242 247 243 239 240 241 244 247 245 246 250 253 254 245 230 223 223 224 226 228 228 227 225 226 228 230 231 232 231 232 235 240 249 255 256 256 256 257 264 275 285
228 227 221 221 224 220 218 224 233 234 227 215 200 194 187 182 204 217 219 215 220 228 239 249 254 258 259 258 256 252 249 253 254 250 253 251 243 249 257 253 244 239 242 243 238 240 244 240 233 234 236 240 240 238 240 248 251 250 243 230 223 223 225 226 228 228 227 227 227 229 229 229 229 228 228 233 245 257 259 256 253 255 261 271 283 291
225 224 219 218 220 221 221 226 234 237 232 224 206 197 194 193 205 216 218 219 227 236 243 248 251 258 261 259 260 257 251 248 250 251 248 241 241 260 268 256 246 245 246 244 239 238 241 240 237 236 236 238 238 237 240 247 249 245 237 226 221 222 224 226 227 228 228 227 227 227 226 226 225 224 225 233 247 258 260 256 255 261 270 279 288 292
223 220 217 218 217 217 220 223 229 231 228 224 210 198 202 216 220 217 219 227 236 239 240 245 250 255 259 258 260 263 259 254 252 252 249 241 240 257 271 264 252 248 241 236 236 237 239 241 243 243 241 240 240 240 241 244 246 242 233 224 220 220 222 224 225 225 224 223 223 223 222 221 221 225 234 242 251 257 258 255 260 271 280 286 293 294
222 218 221 220 217 220 224 224 229 236 232 224 213 202 204 218 224 224 225 229 236 237 236 242 253 257 257 258 260 265 268 265 258 254 255 249 242 249 259 261 256 250 239 229 228 231 237 244 247 248 246 242 241 242 242 242 241 236 228 222 220 219 220 221 221 219 219 219 219 219 218 218 223 233 243 246 249 252 255 259 269 279 287 292 296 295
219 200 208 208 205 214 226 224 225 233 226 209 200 201 206 214 218 223 228 230 236 238 234 236 252 260 262 265 268 272 275 275 265 256 255 252 242 239 245 251 255 254 247 241 236 237 242 247 247 246 244 242 241 240 239 237 234 229 224 222 220 219 218 217 215 214 214 215 215 216 217 220 227 236 242 246 249 253 260 271 281 288 293 296 295 292
235 204 177 190 186 183 193 191 172 173 184 188 194 198 204 211 214 220 230 234 238 241 239 242 254 266 272 274 274 275 276 277 273 265 257 249 241 237 237 241 246 250 249 247 248 249 249 249 246 242 236 234 236 234 231 230 228 224 222 221 218 215 212 210 209 209 210 211 212 214 218 224 231 237 242 247 253 261 273 283 289 293 295 295 292 289
248 229 211 199 187 174 164 158 150 147 147 158 173 167 164 191 207 216 229 235 238 245 250 254 258 263 269 271 273 274 275 277 276 268 255 244 240 239 240 242 245 247 246 243 241 242 244 244 244 239 230 225 224 222 220 222 221 219 218 216 211 206 203 203 205 206 207 209 212 216 223 231 239 247 256 263 270 278 284 287 291 294 293 289 287 286
248 234 224 198 187 183 170 155 159 160 147 141 150 149 147 172 197 213 230 241 248 255 259 262 262 263 265 266 267 269 270 269 266 259 249 242 241 245 247 249 249 249 251 249 236 224 225 225 222 217 210 203 202 202 205 208 209 209 208 206 201 199 199 200 202 203 205 209 215 224 234 243 250 258 267 274 278 280 280 281 286 290 288 284 282 282
232 217 211 188 173 177 175 167 169 170 152 138 150 166 176 193 211 226 241 251 261 271 274 273 271 269 266 263 261 259 256 253 253 254 250 244 246 250 253 254 252 250 253 252 230 209 212 211 201 198 197 193 192 195 194 193 193 194 196 197 195 196 197 198 199 202 207 215 225 236 247 256 261 265 269 274 277 277 276 278 283 284 280 279 280 281
222 194 188 181 165 160 166 168 171 176 166 148 159 186 201 213 226 237 253 264 274 283 284 279 275 268 262 260 258 252 245 241 242 249 248 237 238 244 247 247 244 237 234 226 210 206 215 216 207 202 198 188 180 176 175 177 181 184 187 189 190 191 194 197 201 207 215 225 236 244 253 261 265 268 271 275 278 278 278 279 280 277 275 278 281 284
217 181 172 177 175 167 168 169 170 180 187 184 189 201 207 212 227 243 264 275 276 275 270 263 259 251 245 244 244 241 234 219 183 142 124 132 165 210 221 218 214 209 203 195 188 185 182 175 170 167 162 158 158 161 166 171 175 178 181 184 188 191 196 202 208 216 225 235 241 246 253 260 265 270 274 276 278 278 277 275 274 273 276 280 283 286
Height
3132 3132 3130 3130 3131 3134 3136 3138 3140 3141 3142 3141 3140 3139 3138 3138 3139 3141 3145 3146 3147 3148 3149 3151 3152 3154 3155 3156 3157 3159 3160 3161 3161 3162 3163 3165 3166 3166 3167 3168 3169 3169 3169 3171 3172 3173 3175 3175 3176 3177 3178 3180 3180 3182 3183 3184 3186 3187 3188 3189 3190 3191 3192 3193 3194 3195 3195 3197 3198 3199 3200 3201 3201 3202 3203 3204 3204 3205 3206 3206 3206 3207 3207 3208 3208 3208
3129 3127 3125 3127 3130 3133 3135 3137 3139 3140 3141 3140 3138 3137 3135 3135 3136 3139 3142 3143 3145 3147 3147 3149 3150 3152 3154 3155 3156 3158 3159 3159 3160 3161 3162 3163 3164 3165 3166 3167 3168 3169 3169 3170 3170 3172 3173 3174 3175 3175 3176 3178 3179 3180 3182 3183 3185 3185 3186 3188 3189 3190 3191 3192 3193 3194 3195 3196 3197 3198 3199 3199 3200 3201 3201 3202 3203 3204 3205 3205 3205 3206 3206 3207 3207 3208
3124 3122 3122 3126 3129 3131 3133 3135 3137 3138 3138 3138 3137 3136 3133 3133 3135 3138 3140 3142 3143 3144 3146 3147 3148 3150 3152 3153 3154 3156 3157 3158 3158 3160 3160 3162 3163 3164 3164 3165 3167 3168 3169 3170 3169 3170 3172 3172 3173 3173 3174 3176 3177 3178 3180 3181 3183 3184 3185 3186 3188 3188 3190 3191 3192 3193 3194 3195 3196 3196 3197 3198 3199 3199 3200 3201 3202 3202 3203 3204 3205 3205 3205 3206 3206 3207
3119 3118 3121 3125 3127 3129 3131 3132 3134 3135 3136 3136 3135 3134 3132 3132 3133 3134 3138 3139 3140 3142 3144 3145 3147 3147 3149 3151 3151 3153 3155 3156 3157 3158 3159 3160 3161 3162 3163 3164 3165 3166 3167 3168 3168 3168 3169 3170 3170 3171 3172 3174 3176 3177 3178 3179 3181 3183 3183 3185 3186 3187 3188 3189 3191 3192 3193 3194 3194 3195 3196 3197 3197 3198 3199 3200 3200 3201 3202 3203 3204 3204 3205 3205 3205 3206
3116 3117 3121 3123 3124 3126 3128 3129 3131 3131 3132 3132 3132 3132 3131 3131 3130 3131 3135 3137 3137 3139 3142 3144 3145 3145 3146 3148 3148 3149 3152 3154 3155 3156 3157 3158 3159 3160 3162 3162 3163 3164 3165 3166 3166 3166 3167 3168 3169 3169 3170 3172 3174 3175 3176 3177 3179 3181 3182 3183 3184 3186 3187 3188 3189 3190 3191 3192 3193 3193 3194 3195 3195 3196 3197 3198 3199 3200 3201 3202 3202 3203 3203 3204 3204 3204
3115 3117 3119 3120 3121 3123 3124 3125 3126 3128 3128 3129 3129 3129 3130 3130 3129 3129 3132 3134 3134 3136 3139 3142 3142 3141 3143 3144 3145 3146 3147 3150 3153 3154 3155 3156 3157 3158 3159 3160 3160 3161 3163 3163 3164 3166 3166 3166 3167 3167 3168 3170 3171 3172 3174 3176 3177 3179 3181 3181 3182 3184 3185 3186 3187 3188 3189 3190 3191 3192 3192 3193 3194 3195 3197 3198 3198 3199 3200 3200 3201 3201 3202 3202 3203 3203
3112 3115 3117 3117 3118 3120 3121 3121 3123 3125 3126 3124 3125 3128 3129 3128 3127 3128 3130 3130 3130 3132 3137 3139 3139 3138 3140 3141 3142 3144 3145 3147 3150 3152 3153 3154 3155 3155 3156 3158 3158 3159 3161 3161 3162 3164 3165 3164 3165 3165 3165 3167 3169 3171 3172 3173 3175 3177 3178 3179 3180 3182 3183 3184 3185 3186 3187 3188 3189 3190 3191 3192 3193 3194 3196 3197 3197 3198 3198 3199 3200 3200 3201 3201 3202 3202
3109 3112 3113 3114 3115 3116 3116 3116 3119 3122 3122 3120 3123 3126 3127 3127 3126 3126 3127 3127 3126 3129 3133 3135 3136 3136 3136 3137 3139 3141 3142 3144 3146 3148 3150 3152 3152 3153 3154 3155 3156 3157 3159 3159 3160 3161 3163 3163 3163 3163 3164 3165 3167 3169 3170 3171 3172 3174 3176 3178 3179 3180 3181 3182 3183 3184 3185 3186 3187 3189 3189 3190 3192 3193 3194 3195 3196 3196 3197 3198 3198 3199 3199 3200 3201 3201
3107 3108 3109 3111 3112 3112 3112 3113 3116 3119 3119 3119 3123 3124 3124 3125 3125 3124 3124 3122 3123 3126 3126 3128 3132 3132 3132 3134 3137 3138 3138 3139 3141 3144 3146 3148 3150 3151 3152 3153 3154 3156 3158 3158 3158 3158 3160 3161 3161 3162 3162 3163 3165 3167 3167 3169 3170 3172 3174 3175 3177 3177 3179 3180 3181 3182 3183 3185 3186 3187 3188 3189 3190 3191 3193 3194 3194 3195 3195 3196 3197 3197 3198 3199 3199 3200
3105 3105 3107 3108 3108 3108 3109 3112 3115 3116 3116 3119 3122 3122 3122 3122 3123 3123 3122 3121 3121 3120 3118 3122 3127 3128 3129 3131 3133 3134 3134 3135 3137 3139 3141 3144 3147 3148 3149 3151 3153 3154 3155 3156 3157 3156 3157 3158 3160 3161 3162 3162 3163 3164 3165 3167 3168 3169 3171 3173 3174 3175 3176 3178 3179 3180 3181 3183 3184 3185 3186 3187 3189 3190 3191 3192 3192 3193 3194 3195 3195 3196 3196 3197 3198 3199
3102 3103 3104 3104 3104 3106 3108 3110 3112 3113 3115 3118 3120 3120 3121 3119 3119 3119 3119 3121 3119 3113 3114 3118 3121 3124 3125 3126 3128 3129 3130 3132 3134 3136 3138 3140 3143 3145 3146 3149 3151 3152 3153 3153 3155 3155 3154 3155 3158 3160 3160 3160 3161 3162 3163 3164 3165 3166 3168 3170 3172 3173 3174 3176 3177 3178 3179 3181 3182 3183 3184 3186 3187 3188 3189 3190 3191 3191 3192 3193 3194 3194 3195 3196 3197 3197
3100 3099 3099 3100 3101 3104 3106 3108 3109 3111 3113 3115 3116 3117 3118 3117 3117 3115 3114 3116 3114 3111 3114 3117 3118 3118 3117 3118 3123 3125 3127 3129 3131 3132 3134 3136 3139 3141 3143 3146 3148 3149 3150 3150 3152 3153 3152 3152 3154 3156 3157 3157 3158 3160 3160 3161 3163 3164 3165 3167 3169 3170 3172 3173 3174 3176 3177 3178 3180 3181 3182 3184 3185 3186 3187 3188 3189 3190 3191 3192 3192 3193 3194 3195 3196 3196
3095 3095 3095 3097 3098 3101 3102 3104 3106 3107 3109 3111 3112 3114 3114 3114 3115 3114 3112 3110 3108 3109 3113 3115 3114 3112 3109 3113 3118 3121 3123 3125 3126 3128 3130 3132 3135 3137 3140 3142 3144 3145 3147 3147 3148 3149 3150 3149 3150 3151 3152 3153 3155 3157 3158 3159 3160 3161 3163 3165 3166 3168 3169 3171 3172 3173 3175 3176 3178 3179 3181 3182 3183 3184 3186 3187 3188 3189 3190 3190 3191 3191 3192 3194 3194 3195
3090 3091 3093 3093 3094 3096 3097 3099 3100 3101 3104 3106 3107 3109 3109 3109 3112 3112 3111 3106 3103 3104 3107 3111 3111 3106 3104 3109 3113 3116 3119 3121 3123 3125 3127 3129 3132 3134 3136 3138 3139 3141 3143 3144 3145 3146 3147 3147 3147 3148 3149 3150 3152 3155 3156 3157 3158 3159 3160 3162 3164 3165 3167 3168 3170 3171 3173 3174 3176 3177 3179 3180 3182 3183 3184 3185 3186 3187 3188 3189 3189 3190 3191 3192 3193 3194
3085 3084 3085 3088 3090 3092 3093 3094 3096 3099 3102 3103 3105 3107 3105 3104 3106 3107 3106 3104 3103 3103 3104 3107 3106 3102 3102 3105 3107 3112 3115 3118 3120 3122 3124 3127 3128 3131 3133 3135 3136 3138 3140 3141 3142 3143 3144 3145 3145 3146 3147 3148 3149 3152 3154 3155 3156 3157 3158 3160 3162 3163 3165 3166 3167 3169 3171 3172 3174 3175 3177 3178 3180 3181 3182 3183 3184 3186 3186 3187 3188 3188 3189 3191 3192 3193
3080 3078 3080 3085 3087 3088 3089 3091 3096 3099 3098 3099 3102 3103 3100 3101 3104 3103 3102 3102 3103 3102 3101 3101 3099 3099 3102 3103 3105 3109 3111 3114 3117 3119 3122 3123 3125 3128 3130 3132 3133 3134 3136 3138 3139 3140 3141 3143 3143 3144 3146 3145 3146 3149 3151 3153 3154 3155 3156 3158 3160 3161 3163 3164 3166 3168 3169 3171 3172 3173 3175 3176 3178 3179 3180 3181 3182 3184 3184 3185 3186 3187 3188 3189 3190 3191
3076 3075 3078 3081 3082 3084 3087 3090 3094 3095 3094 3095 3096 3095 3095 3100 3103 3101 3100 3101 3102 3100 3096 3096 3094 3096 3099 3099 3102 3106 3108 3111 3113 3116 3118 3120 3122 3124 3125 3126 3128 3130 3132 3134 3135 3137 3138 3140 3140 3142 3143 3143 3143 3146 3148 3150 3152 3153 3155 3156 3158 3159 3161 3162 3164 3166 3167 3169 3169 3171 3172 3174 3176 3177 3178 3179 3181 3182 3182 3183 3184 3185 3186 3187 3188 3189
3073 3072 3073 3076 3077 3080 3085 3088 3090 3091 3091 3090 3089 3091 3096 3099 3100 3099 3097 3097 3099 3097 3093 3092 3092 3094 3095 3094 3097 3102 3104 3108 3109 3112 3115 3117 3119 3121 3121 3122 3124 3126 3130 3131 3132 3134 3136 3137 3137 3139 3140 3140 3141 3143 3146 3148 3150 3152 3153 3155 3156 3157 3159 3160 3162 3164 3165 3166 3167 3168 3170 3172 3173 3175 3176 3178 3179 3179 3180 3181 3182 3183 3184 3185 3186 3187
3072 3070 3069 3071 3073 3076 3081 3085 3085 3086 3087 3085 3085 3089 3092 3091 3091 3094 3092 3092 3095 3094 3091 3090 3091 3092 3091 3090 3093 3096 3099 3103 3106 3108 3112 3114 3116 3119 3119 3119 3122 3125 3126 3127 3129 3131 3132 3134 3135 3136 3137 3138 3139 3141 3144 3146 3148 3150 3151 3153 3154 3155 3157 3159 3160 3162 3163 3164 3165 3166 3168 3170 3171 3173 3174 3175 3176 3177 3178 3179 3180 3181 3182 3183 3184 3185
3071 3069 3066 3067 3070 3073 3076 3077 3076 3077 3081 3084 3084 3085 3086 3085 3087 3090 3089 3089 3092 3091 3089 3089 3088 3087 3087 3089 3091 3092 3094 3098 3102 3106 3109 3111 3114 3116 3116 3116 3120 3122 3121 3122 3126 3128 3129 3131 3132 3133 3134 3135 3137 3139 3142 3144 3146 3148 3149 3150 3152 3153 3155 3156 3158 3159 3160 3161 3163 3164 3166 3167 3169 3170 3172 3173 3174 3175 3176 3177 3178 3179 3180 3181 3182 3182
3068 3067 3065 3064 3066 3067 3066 3066 3068 3073 3077 3081 3081 3080 3080 3082 3085 3087 3085 3085 3088 3088 3087 3087 3085 3082 3085 3088 3088 3090 3091 3093 3098 3103 3106 3109 3111 3113 3113 3113 3115 3116 3117 3120 3123 3125 3127 3128 3129 3130 3131 3133 3135 3137 3139 3141 3143 3145 3146 3148 3149 3151 3152 3153 3155 3156 3158 3159 3160 3162 3163 3165 3166 3168 3170 3171 3172 3172 3174 3175 3176 3177 3178 3179 3179 3180
3064 3064 3064 3062 3061 3060 3060 3062 3067 3072 3075 3076 3077 3077 3078 3078 3080 3082 3080 3079 3083 3084 3084 3085 3082 3080 3083 3086 3086 3089 3090 3091 3095 3099 3102 3106 3108 3109 3110 3111 3112 3113 3116 3119 3121 3122 3124 3125 3126 3127 3128 3130 3132 3134 3136 3138 3140 3142 3143 3145 3147 3148 3149 3151 3152 3154 3155 3157 3158 3160 3161 3162 3164 3166 3167 3168 3169 3170 3171 3173 3174 3175 3176 3176 3177 3178
3061 3062 3061 3060 3057 3056 3059 3062 3065 3068 3071 3073 3073 3074 3076 3076 3075 3074 3074 3075 3079 3080 3082 3082 3079 3078 3081 3083 3084 3087 3089 3090 3093 3096 3098 3102 3105 3106 3108 3109 3110 3112 3116 3118 3118 3119 3121 3122 3124 3125 3125 3127 3129 3131 3133 3135 3137 3139 3140 3142 3143 3145 3146 3148 3150 3152 3153 3155 3156 3157 3159 3160 3162 3163 3164 3166 3167 3168 3169 3170 3172 3173 3173 3174 3174 3175
3057 3057 3057 3057 3057 3057 3057 3060 3062 3065 3068 3069 3068 3069 3071 3071 3071 3070 3071 3074 3076 3075 3076 3077 3075 3077 3080 3082 3083 3085 3087 3088 3091 3094 3096 3099 3101 3102 3104 3106 3106 3109 3112 3114 3115 3117 3119 3121 3122 3123 3123 3124 3126 3128 3130 3132 3134 3136 3137 3139 3140 3142 3144 3146 3147 3149 3151 3152 3154 3155 3156 3158 3159 3161 3162 3163 3165 3166 3167 3168 3170 3171 3171 3171 3172 3172
3050 3051 3053 3054 3054 3055 3053 3052 3055 3059 3061 3062 3063 3065 3066 3068 3070 3070 3070 3072 3070 3069 3071 3071 3070 3074 3078 3081 3082 3084 3085 3087 3089 3092 3095 3096 3098 3100 3101 3103 3103 3105 3108 3111 3112 3114 3116 3118 3119 3119 3120 3121 3123 3124 3126 3128 3130 3133 3134 3136 3137 3139 3141 3143 3145 3146 3148 3150 3151 3152 3154 3155 3157 3158 3159 3161 3162 3164 3165 3166 3167 3168 3169 3170 3169 3169
3045 3046 3049 3048 3046 3048 3047 3044 3047 3053 3056 3058 3060 3062 3063 3065 3067 3068 3069 3068 3065 3066 3069 3068 3067 3070 3076 3079 3081 3083 3084 3085 3088 3090 3092 3094 3096 3098 3099 3099 3101 3103 3105 3107 3108 3110 3112 3114 3115 3117 3117 3119 3120 3122 3123 3125 3127 3129 3131 3133 3134 3136 3138 3140 3142 3143 3145 3147 3148 3150 3151 3152 3154 3155 3157 3159 3160 3162 3163 3164 3164 3165 3166 3168 3168 3167
3042 3042 3044 3044 3042 3043 3044 3044 3047 3050 3052 3053 3056 3058 3060 3061 3063 3065 3065 3063 3063 3066 3066 3066 3066 3069 3072 3075 3078 3081 3082 3083 3086 3088 3089 3091 3093 3096 3097 3097 3099 3102 3103 3105 3106 3107 3109 3111 3112 3114 3115 3116 3118 3119 3121 3122 3124 3126 3128 3129 3131 3133 3135 3138 3139 3140 3142 3144 3146 3147 3148 3150 3151 3153 3155 3156 3158 3160 3161 3162 3162 3162 3163 3165 3165 3165
3038 3037 3038 3041 3042 3043 3044 3045 3046 3047 3048 3050 3052 3054 3057 3058 3059 3060 3060 3060 3063 3064 3062 3064 3068 3068 3070 3072 3074 3077 3080 3081 3083 3085 3087 3089 3091 3093 3096 3097 3099 3100 3101 3103 3105 3105 3107 3109 3110 3112 3113 3114 3115 3117 3118 3119 3121 3124 3125 3127 3128 3130 3132 3135 3136 3137 3139 3142 3143 3144 3146 3148 3149 3151 3152 3154 3156 3157 3159 3159 3160 3160 3160 3161 3162 3163
3035 3034 3035 3037 3040 3042 3043 3044 3044 3044 3045 3047 3048 3050 3053 3055 3056 3055 3055 3058 3062 3060 3059 3064 3067 3067 3070 3071 3071 3074 3078 3080 3081 3083 3085 3088 3090 3092 3094 3096 3097 3098 3098 3100 3103 3104 3106 3107 3108 3110 3110 3112 3113 3114 3115 3117 3118 3120 3122 3124 3125 3127 3129 3132 3134 3135 3136 3139 3140 3141 3143 3145 3147 3149 3150 3152 3154 3155 3156 3157 3157 3157 3157 3157 3159 3160
3033 3032 3033 3035 3036 3038 3040 3042 3042 3042 3043 3044 3044 3045 3048 3050 3052 3053 3054 3056 3058 3057 3059 3063 3064 3065 3069 3071 3070 3072 3075 3078 3080 3082 3083 3085 3088 3090 3092 3093 3094 3096 3097 3098 3100 3102 3103 3104 3105 3107 3108 3109 3110 3111 3112 3114 3115 3117 3119 3121 3122 3124 3126 3128 3130 3132 3134 3136 3138 3139 3141 3143 3145 3146 3148 3149 3151 3152 3153 3154 3155 3155 3155 3155 3155 3156
3031 3030 3032 3034 3034 3034 3036 3038 3040 3040 3041 3042 3041 3042 3044 3045 3047 3049 3051 3053 3054 3054 3057 3060 3061 3062 3066 3070 3071 3071 3072 3074 3076 3079 3082 3083 3084 3087 3089 3090 3091 3093 3095 3096 3097 3098 3099 3100 3102 3103 3105 3106 3107 3108 3110 3111 3112 3114 3116 3117 3119 3121 3123 3125 3127 3129 3131 3133 3135 3137 3138 3140 3142 3144 3145 3146 3148 3149 3150 3151 3151 3152 3152 3152 3152 3153
3029 3029 3031 3033 3033 3031 3032 3035 3036 3038 3041 3041 3039 3039 3041 3041 3042 3043 3046 3049 3052 3053 3054 3056 3057 3059 3064 3067 3069 3070 3071 3071 3072 3074 3078 3080 3082 3083 3085 3087 3089 3090 3090 3092 3094 3094 3096 3097 3099 3100 3102 3104 3104 3105 3107 3108 3109 3110 3112 3114 3116 3118 3120 3122 3124 3126 3128 3131 3133 3134 3136 3137 3139 3141 3142 3144 3145 3146 3147 3148 3149 3149 3149 3149 3150 3150
3027 3028 3029 3031 3030 3029 3031 3033 3034 3037 3037 3033 3031 3035 3038 3039 3040 3041 3043 3046 3049 3051 3052 3053 3054 3057 3062 3064 3065 3067 3068 3069 3070 3071 3073 3076 3079 3080 3082 3084 3085 3086 3087 3089 3090 3090 3092 3094 3096 3098 3099 3101 3101 3102 3103 3105 3106 3107 3109 3111 3113 3116 3117 3119 3121 3123 3126 3128 3130 3131 3133 3134 3136 3138 3139 3140 3141 3142 3144 3145 3145 3146 3146 3147 3147 3147
3024 3025 3027 3029 3028 3028 3031 3034 3035 3034 3028 3023 3028 3035 3038 3038 3038 3039 3041 3043 3045 3047 3049 3051 3053 3056 3059 3060 3061 3063 3065 3066 3068 3069 3070 3072 3074 3076 3078 3080 3082 3084 3085 3085 3086 3087 3089 3090 3092 3094 3096 3098 3099 3100 3100 3101 3102 3104 3106 3107 3110 3112 3114 3116 3118 3120 3122 3125 3126 3128 3129 3131 3133 3135 3136 3137 3138 3139 3140 3142 3143 3143 3144 3144 3144 3145
3020 3022 3024 3026 3025 3026 3029 3033 3032 3026 3021 3023 3031 3035 3035 3036 3036 3036 3038 3040 3042 3044 3046 3047 3049 3052 3054 3056 3058 3060 3061 3062 3063 3065 3067 3068 3070 3072 3074 3075 3078 3080 3081 3082 3083 3084 3085 3087 3088 3090 3092 3094 3096 3096 3097 3098 3099 3101 3102 3103 3106 3109 3111 3113 3114 3116 3119 3121 3122 3124 3126 3128 3130 3131 3132 3134 3135 3136 3138 3139 3140 3141 3141 3142 3142 3142
3015 3018 3020 3021 3022 3023 3025 3027 3025 3021 3021 3027 3031 3031 3032 3034 3035 3035 3035 3036 3039 3042 3043 3043 3043 3046 3049 3051 3054 3056 3058 3059 3060 3061 3063 3065 3066 3067 3069 3070 3072 3075 3077 3079 3081 3081 3082 3083 3085 3086 3089 3091 3092 3093 3093 3094 3095 3097 3098 3100 3102 3105 3107 3109 3110 3113 3115 3117 3119 3121 3123 3125 3127 3128 3129 3130 3132 3134 3135 3136 3137 3138 3138 3139 3139 3139
3013 3014 3016 3017 3017 3019 3021 3022 3022 3022 3024 3025 3026 3027 3029 3029 3030 3031 3031 3032 3036 3038 3038 3038 3040 3043 3045 3046 3048 3050 3052 3054 3055 3056 3059 3061 3062 3063 3064 3066 3068 3070 3072 3074 3076 3078 3079 3079 3081 3082 3084 3086 3087 3089 3090 3090 3091 3093 3095 3096 3098 3101 3103 3105 3107 3109 3111 3114 3116 3118 3120 3122 3123 3124 3126 3128 3130 3131 3133 3133 3134 3135 3136 3136 3136 3137
3010 3012 3014 3014 3013 3016 3020 3021 3020 3020 3019 3020 3022 3024 3025 3025 3026 3026 3027 3029 3032 3033 3032 3034 3038 3041 3042 3042 3043 3044 3045 3047 3049 3051 3054 3056 3058 3061 3062 3063 3064 3066 3068 3069 3072 3074 3074 3074 3075 3077 3078 3080 3083 3084 3085 3086 3087 3089 3090 3092 3094 3097 3099 3101 3103 3105 3108 3110 3113 3115 3117 3118 3120 3121 3123 3125 3127 3129 3130 3131 3132 3133 3133 3133 3133 3134
3008 3010 3012 3012 3010 3012 3016 3017 3015 3015 3015 3018 3021 3022 3023 3023 3024 3024 3027 3029 3030 3031 3031 3033 3037 3039 3040 3040 3041 3043 3045 3045 3046 3048 3051 3054 3056 3058 3059 3060 3060 3061 3063 3065 3067 3069 3068 3068 3069 3071 3073 3074 3077 3079 3081 3082 3083 3084 3086 3088 3090 3092 3095 3097 3099 3101 3104 3106 3109 3111 3113 3114 3116 3119 3121 3123 3125 3126 3127 3128 3129 3130 3130 3131 3131 3131
3006 3008 3009 3009 3008 3009 3012 3013 3013 3014 3015 3017 3019 3020 3021 3022 3023 3026 3028 3029 3029 3029 3031 3033 3035 3037 3037 3039 3040 3042 3043 3043 3044 3045 3048 3051 3054 3056 3056 3056 3056 3057 3058 3060 3062 3062 3062 3062 3063 3065 3067 3069 3071 3074 3076 3077 3078 3080 3081 3083 3085 3087 3091 3093 3095 3097 3100 3103 3105 3107 3109 3111 3114 3116 3118 3120 3121 3123 3124 3125 3125 3126 3127 3128 3127 3126
3004 3006 3007 3008 3008 3009 3011 3012 3012 3013 3014 3016 3017 3020 3020 3021 3023 3026 3026 3026 3027 3028 3029 3031 3033 3033 3034 3036 3038 3039 3040 3041 3042 3043 3044 3046 3049 3051 3051 3051 3051 3052 3053 3055 3057 3057 3056 3057 3058 3059 3062 3064 3067 3069 3070 3071 3073 3075 3076 3078 3080 3083 3086 3089 3091 3093 3096 3099 3101 3104 3106 3109 3111 3113 3115 3116 3118 3119 3121 3121 3121 3122 3123 3123 3123 3122
3003 3003 3003 3005 3007 3008 3010 3012 3013 3013 3013 3015 3016 3018 3019 3020 3022 3022 3022 3023 3024 3025 3026 3028 3029 3029 3031 3032 3034 3036 3037 3038 3039 3040 3042 3044 3044 3043 3042 3044 3046 3047 3048 3050 3051 3050 3050 3052 3054 3055 3057 3059 3060 3062 3063 3065 3068 3070 3071 3073 3075 3079 3082 3085 3087 3090 3093 3096 3099 3102 3104 3106 3107 3109 3111 3112 3113 3115 3116 3117 3118 3119 3119 3119 3119 3118
2999 3000 3000 3001 3004 3006 3009 3010 3010 3010 3011 3014 3015 3016 3017 3018 3018 3019 3020 3022 3023 3024 3025 3026 3026 3027 3028 3030 3031 3033 3033 3034 3036 3037 3040 3043 3043 3040 3039 3041 3042 3043 3044 3045 3045 3044 3045 3046 3048 3050 3052 3053 3055 3056 3058 3060 3063 3065 3067 3068 3071 3074 3078 3080 3083 3086 3090 3093 3095 3098 3099 3102 3104 3106 3107 3109 3110 3111 3112 3113 3114 3115 3115 3115 3114 3113
2994 2995 2996 2999 3002 3004 3005 3006 3006 3007 3010 3013 3013 3013 3014 3015 3015 3017 3019 3019 3019 3021 3023 3024 3024 3025 3026 3028 3029 3030 3030 3031 3033 3035 3036 3038 3039 3037 3037 3039 3040 3039 3040 3040 3040 3039 3040 3041 3042 3043 3044 3046 3048 3050 3052 3055 3057 3060 3061 3063 3066 3069 3073 3076 3080 3083 3086 3089 3091 3093 3096 3099 3101 3102 3104 3106 3107 3108 3110 3111 3111 3111 3111 3110 3110 3109
2990 2990 2992 2996 2999 3000 3001 3002 3004 3006 3009 3010 3009 3009 3011 3011 3013 3016 3017 3016 3017 3019 3020 3021 3022 3023 3025 3026 3026 3027 3027 3028 3029 3029 3030 3031 3032 3031 3031 3033 3035 3035 3035 3036 3036 3036 3036 3036 3037 3037 3038 3040 3042 3044 3047 3049 3052 3054 3057 3059 3062 3065 3069 3073 3077 3080 3082 3085 3087 3090 3093 3095 3097 3099 3100 3102 3104 3105 3107 3108 3108 3107 3107 3105 3105 3104
2988 2989 2990 2992 2993 2994 2997 3000 3001 3004 3006 3007 3007 3007 3008 3007 3010 3013 3014 3014 3016 3017 3018 3020 3022 3023 3023 3023 3023 3024 3024 3024 3025 3026 3026 3027 3027 3026 3026 3028 3029 3029 3029 3030 3031 3031 3030 3031 3032 3032 3032 3033 3036 3039 3042 3044 3047 3050 3052 3054 3058 3063 3067 3071 3074 3076 3079 3082 3085 3088 3090 3092 3093 3095 3097 3098 3100 3102 3104 3105 3104 3103 3102 3101 3099 3099
2988 2990 2991 2991 2991 2992 2995 2997 2998 3000 3003 3004 3004 3005 3004 3003 3007 3011 3012 3013 3014 3014 3016 3019 3021 3020 3020 3020 3020 3021 3021 3021 3022 3023 3023 3023 3024 3024 3024 3025 3026 3025 3025 3024 3024 3023 3024 3025 3026 3027 3027 3028 3030 3034 3037 3039 3042 3045 3049 3053 3058 3062 3066 3069 3071 3074 3077 3080 3083 3086 3088 3089 3091 3092 3094 3094 3095 3096 3099 3101 3100 3098 3097 3096 3094 3093
2990 2991 2991 2990 2989 2990 2992 2994 2995 2997 2999 2999 3000 3001 3001 3001 3005 3009 3011 3011 3011 3012 3014 3017 3018 3017 3017 3017 3018 3017 3017 3018 3019 3019 3019 3020 3021 3022 3023 3023 3024 3023 3023 3023 3022 3020 3019 3021 3022 3023 3024 3025 3027 3030 3033 3036 3040 3045 3049 3054 3058 3061 3063 3066 3068 3072 3075 3078 3081 3083 3085 3086 3088 3089 3090 3090 3089 3090 3093 3095 3095 3093 3092 3091 3090 3089
2988 2989 2989 2988 2988 2989 2991 2992 2994 2996 2999 2998 2997 2999 3000 3002 3004 3007 3008 3009 3010 3011 3013 3015 3015 3015 3015 3015 3015 3015 3015 3015 3015 3015 3016 3017 3019 3021 3021 3021 3021 3020 3020 3023 3025 3023 3023 3024 3024 3024 3024 3025 3026 3029 3033 3036 3040 3045 3049 3052 3055 3058 3060 3063 3066 3070 3073 3075 3078 3079 3081 3082 3084 3084 3085 3085 3085 3086 3087 3088 3088 3087 3087 3086 3085 3084
2987 2985 2985 2987 2987 2988 2990 2992 2993 2996 3000 3000 2999 2999 3000 3002 3005 3006 3007 3008 3009 3009 3011 3013 3013 3012 3012 3012 3012 3013 3013 3013 3012 3011 3012 3014 3016 3017 3018 3017 3017 3017 3018 3021 3025 3025 3025 3026 3026 3026 3025 3026 3028 3031 3034 3037 3041 3044 3047 3051 3054 3057 3060 3062 3065 3068 3070 3072 3074 3075 3076 3078 3079 3080 3081 3082 3082 3082 3082 3083 3083 3082 3081 3081 3080 3080
2985 2982 2982 2984 2986 2987 2990 2992 2994 2996 2999 3001 3001 3001 3001 3002 3003 3005 3006 3007 3007 3008 3010 3011 3011 3011 3010 3009 3009 3009 3009 3010 3010 3008 3008 3011 3013 3015 3016 3016 3016 3017 3018 3021 3023 3024 3024 3026 3028 3027 3027 3029 3031 3034 3037 3039 3041 3044 3047 3050 3053 3056 3059 3061 3063 3065 3067 3068 3070 3071 3073 3074 3076 3077 3077 3077 3077 3078 3077 3077 3078 3077 3077 3076 3076 3075